Regional Weather Roundup
Issued by NWS State College, PA

Home | Current Version | Previous Version | Text Only | Print | Product List | Glossary Off
Versions: 1 2 3 4 5 6 7 8 9 10 11 12 13 14 15 16 17 18 19 20 21 22 23 24 25 26 27 28 29 30 31 32 33 34 35 36 37 38 39 40 41 42 43 44 45 46 47 48 49 50

000
ASUS41 KCTP 171110
RWRCTP

REGIONAL WEATHER ROUNDUP
NATIONAL WEATHER SERVICE STATE COLLEGE PA
600 AM EST TUE JAN 17 2017

Note: "fair" indicates few or no clouds below 12,000 feet with no
significant weather and/or obstructions to visibility.

* = STATION THAT DOES NOT REPORT PRECIPITATION /E.G. RAIN...SNOW...ETC/
    THUNDER OR FOG.

PAZ002>004-007>009-013>016-020>023-029>032-171200-
WESTERN PENNSYLVANIA

CITY           SKY/WX    TMP DP  RH WIND       PRES   REMARKS
ERIE           LGT RAIN  43  40  89 SE13      29.97F
MEADVILLE      LGT RAIN  40  38  93 SE5       29.98F FOG
FRANKLIN*        N/A     37  34  87 SE5       30.03F VSB 3/4
NEW CASTLE     LGT RAIN  39  39 100 CALM      30.01F VSB 3/4
BEAVER COUNTY  NOT AVBL
BUTLER*        CLOUDY    43  41  93 SE5       30.04F
PITTSBURGH INT LGT RAIN  41  41 100 SE5       30.00F VSB 3/4
PITTSBURGH     LGT RAIN  42  40  92 S8        30.01F FOG
INDIANA*       CLOUDY    39  39 100 E3        30.07F FOG
LATROBE        CLOUDY    39  39 100 MISG      30.04F FOG
WASHINGTON CO* CLOUDY    45  45 100 S3        30.03S
$$

PAZ004>006-010>012-017>019-024>028-033>037-041-042-045-046-049>053-171200-
CENTRAL PENNSYLVANIA

CITY           SKY/WX    TMP DP  RH WIND       PRES   REMARKS
BRADFORD       LGT RAIN  34  34 100 SE6       30.05F VSB 1/2
DUBOIS         MIX PCPN  35  33  92 E8        30.05F VSB 1/4
CLEARFIELD     CLOUDY    33  32  96 NE7       30.10F FOG
JOHNSTOWN      CLOUDY    45  45 100 SW5       30.06F FOG
ALTOONA        LGT RAIN  34  33  96 CALM      30.12S FOG
STATE COLLEGE  CLOUDY    32  30  93 CALM      30.13F FOG
WILLIAMSPORT   CLOUDY    34  29  82 CALM      30.18F
SELINSGROVE    CLOUDY    33  33 100 CALM      30.19F FOG
FT INDIANTOWN  CLOUDY    33  33 100 CALM      30.19F FOG
CAPITAL CITY   CLOUDY    36  28  73 CALM      30.20F
HARRISBURG     CLOUDY    35  30  82 CALM      30.20F
YORK           CLOUDY    35  34  96 CALM      30.18F FOG
$$

PAZ038>040-043-044-047-048-054-055-060>062-067>071-171200-
EASTERN PENNSYLVANIA

CITY           SKY/WX    TMP DP  RH WIND       PRES   REMARKS
SCRANTON       MIX PCPN  34  30  85 E3        30.17F
MOUNT POCONO   CLOUDY    33  28  81 NW6       30.13F
ALLENTOWN      CLOUDY    37  27  67 CALM      30.20F
QUAKERTOWN*    CLOUDY    36  27  69 CALM      30.21F
READING        CLOUDY    37  28  70 CALM      30.21F
LANCASTER      CLOUDY    35  32  88 E5        30.19F
COATESVILLE    CLOUDY    36  28  75 SE3       30.21F
POTTSTOWN      CLOUDY    36  27  69 CALM      30.23F
BLUE BELL      CLOUDY    36  30  80 CALM      30.21F
DOYLESTOWN     CLOUDY    38  27  64 CALM      30.20F
WILLOW GROVE   NOT AVBL
NORTH PHILA    CLOUDY    40  28  62 SW5       30.24F
PHILADELPHIA   CLOUDY    39  30  70 S3        30.25F
$$



USA.gov is the U.S. government's official web portal to all federal, state and local government web resources and services.